Location: Unspecified
(48.2082°N, 0.0000°E)
Time: 01:34:28
(UTC+00:00)

Altair - Pass Details

Date: 20 June 2019
Orbit: 1501 x 1683 km, 47.2° (Epoch: 16 August)

Event Time Altitude Azimuth Distance (km) Brightness Sun altitude
Rises 03:58:09 0° 290° (WNW) 4,897 9.8 -1.0°
Reaches altitude 10° 04:02:10 10° 276° (W) 3,925 9.2 -0.4°
Maximum altitude 04:09:18 23° 231° (SW) 3,059 8.5 0.5°
Drops below altitude 10° 04:16:29 10° 185° (S) 3,934 9.3 1.5°
Sets 04:20:33 0° 171° (S) 4,911 9.9 2.1°
